Location: Burland Observatory
(39.4088°N, 105.4217°W)
Time: 01:12:30
(UTC-07:00)

Vanguard 3 - Pass Details

Date: 08 December 2019
Orbit: 507 x 3263 km, 33.4° (Epoch: 24 January)

Event Time Altitude Azimuth Distance (km) Brightness Sun altitude
Rises 14:20:26 0° 280° (W) 6,082 12.0 19.0°
Reaches altitude 10° 14:24:23 10° 273° (W) 5,382 11.9 18.6°
Maximum altitude 14:39:38 40° 212° (SSW) 4,143 12.2 16.7°
Drops below altitude 10° 14:56:53 10° 152° (SSE) 6,009 11.9 14.5°
Sets 15:01:43 0° 145° (SE) 6,823 12.0 13.9°
